Home   Weather   Loughton   Past weeks

Flag for United Kingdom Past Weather in Loughton, England, United Kingdom — Yesterday and Last 2 Weeks

Now
39 °F

Chilly.


Feels Like: 31 °F
Forecast: 36 / 51 °F
Wind: 14 mph from West

Location: Gravesend-Broadness

Current Time: Apr 25, 2017 at 4:04:04 am

Latest Report: Apr 25, 2017 at 3:00 am


Visibility: N/A

Pressure: 29.89 "Hg

Humidity: 66%

Dew Point: 29 °F

Location of LoughtonLocation

Weather Data Notice: We have recorded very few readings for this month, some days may be missing.

Past Weather in Loughton — Graph

°F

Loughton Temperature Yesterday

Maximum temperature yesterday: 57 °F (at 12:50 pm)
Minimum temperature yesterday: 45 °F (at 4:00 am)
Average temperature yesterday: 50 °F

High & Low Weather Summary for the Past Weeks

 TemperatureHumidityPressure
High60 °F (Apr 23, 5:00 pm)96% (Apr 21, 3:00 am)30.53 "Hg (Apr 21, 3:00 am)
Low41 °F (Apr 25, 2:00 am)46% (Apr 24, 11:00 pm)29.86 "Hg (Apr 24, 6:00 pm)
Average52 °F70%30.27 "Hg
* Reported Apr 20 10:00 pm — Apr 25 2:00 am, Loughton, Weather by CustomWeather, © 2017

Note: Actual official high and low records may vary slightly from our data, if they occured in-between our weather recording intervals... More about our weather records

Advertising

Loughton Weather History for the Previous 24 Hours

Scroll right to see more
 ConditionsComfort  
Time TempWeatherWind HumidityBarometerVisibility
2:00 am
Tue, Apr 25
41 °FQuite cool.15 mph61%29.90 "HgN/A
12:50 am42 °FQuite cool.16 mph54%29.90 "HgN/A
12:00 am44 °FQuite cool.14 mph52%29.90 "HgN/A
11:00 pm
Mon, Apr 24
47 °FCool.16 mph46%29.90 "HgN/A
10:00 pm49 °FCool.12 mph54%29.90 "HgN/A
9:00 pm49 °FCool.10 mph73%29.88 "HgN/A
8:00 pm49 °FCool.7 mph81%29.88 "HgN/A
7:00 pm51 °FCool.7 mph84%29.88 "HgN/A
6:00 pm54 °FCool.10 mph70%29.86 "HgN/A
5:00 pm53 °FCool.7 mph83%29.88 "HgN/A
4:00 pm55 °FCool.13 mph67%29.90 "HgN/A
3:00 pm56 °FCool.10 mph66%29.92 "HgN/A
2:00 pm55 °FCool.14 mph63%29.95 "HgN/A
12:50 pm57 °FRefreshingly cool.13 mph59%29.97 "HgN/A
11:00 am56 °FCool.9 mph63%30.01 "HgN/A
10:00 am56 °FCool.8 mph62%30.02 "HgN/A
9:00 am53 °FCool.7 mph73%30.03 "HgN/A
8:00 am49 °FCool.7 mph84%30.05 "HgN/A
7:00 am47 °FCool.7 mph88%30.06 "HgN/A
6:00 am46 °FCool.6 mph89%30.07 "HgN/A
5:00 am46 °FCool.5 mph90%30.08 "HgN/A
4:00 am45 °FQuite cool.5 mph92%30.09 "HgN/A
Weather by CustomWeather, © 2017

See weather overviewHow to use our weather pages